Stündliche Wetter Holopya

Heute, 21 Juni, Montag

Zeit Temperatur Niederschläge Wind Luftdruck Luftfeuchtigkeit
00:00 +20°C° 0 mm 3 m/S 748 mmHg 92%
01:00 +19°C° 0 mm 2 m/S 748 mmHg 93%
02:00 +19°C° 0 mm 2 m/S 748 mmHg 94%
03:00 +19°C° 0 mm 2 m/S 748 mmHg 95%
04:00 +18°C° 0 mm 2 m/S 748 mmHg 95%
05:00 +18°C° 0 mm 2 m/S 748 mmHg 96%
06:00 +20°C° 0 mm 3 m/S 747 mmHg 91%
07:00 +22°C° 0 mm 3 m/S 747 mmHg 86%
08:00 +23°C° 0 mm 4 m/S 747 mmHg 80%
09:00 +26°C° 0 mm 4 m/S 747 mmHg 72%
10:00 +28°C° 0 mm 4 m/S 747 mmHg 63%
11:00 +29°C° 0 mm 4 m/S 747 mmHg 54%
12:00 +30°C° 0 mm 4 m/S 747 mmHg 53%
13:00 +30°C° 0 mm 5 m/S 746 mmHg 51%
14:00 +30°C° 0 mm 5 m/S 746 mmHg 50%
15:00 +30°C° 0 mm 4 m/S 746 mmHg 53%
16:00 +30°C° 0 mm 4 m/S 745 mmHg 55%
17:00 +30°C° 0 mm 3 m/S 745 mmHg 57%
18:00 +29°C° 0.1 mm 3 m/S 745 mmHg 64%
19:00 +27°C° 0.1 mm 2 m/S 745 mmHg 71%
20:00 +26°C° 0.1 mm 2 m/S 745 mmHg 78%
21:00 +25°C° 0 mm 2 m/S 745 mmHg 82%
22:00 +23°C° 0 mm 2 m/S 745 mmHg 85%
23:00 +21°C° 0 mm 2 m/S 745 mmHg 89%

Morgen, 22 Juni, Dienstag

Zeit Temperatur Niederschläge Wind Luftdruck Luftfeuchtigkeit
00:00 +21°C° 0 mm 2 m/S 745 mmHg 90%
01:00 +20°C° 0 mm 2 m/S 745 mmHg 92%
02:00 +20°C° 0 mm 2 m/S 746 mmHg 93%
03:00 +20°C° 0 mm 2 m/S 746 mmHg 93%
04:00 +20°C° 0 mm 2 m/S 746 mmHg 94%
05:00 +20°C° 0 mm 2 m/S 746 mmHg 94%
06:00 +21°C° 0 mm 3 m/S 746 mmHg 88%
07:00 +24°C° 0 mm 3 m/S 746 mmHg 81%
08:00 +26°C° 0 mm 4 m/S 746 mmHg 75%
09:00 +27°C° 0 mm 4 m/S 746 mmHg 70%
10:00 +28°C° 0 mm 4 m/S 747 mmHg 65%
11:00 +29°C° 0 mm 4 m/S 747 mmHg 60%
12:00 +30°C° 0 mm 4 m/S 747 mmHg 57%
13:00 +30°C° 0 mm 4 m/S 747 mmHg 54%
14:00 +32°C° 0 mm 4 m/S 747 mmHg 52%
15:00 +32°C° 0 mm 4 m/S 747 mmHg 53%
16:00 +31°C° 0 mm 3 m/S 747 mmHg 54%
17:00 +31°C° 0 mm 3 m/S 747 mmHg 56%
18:00 +30°C° 0 mm 2 m/S 746 mmHg 62%
19:00 +28°C° 0 mm 2 m/S 746 mmHg 68%
20:00 +27°C° 0 mm 1 m/S 746 mmHg 74%
21:00 +26°C° 0.1 mm 1 m/S 747 mmHg 77%
22:00 +25°C° 0.1 mm 1 m/S 747 mmHg 80%
23:00 +23°C° 0.1 mm 1 m/S 747 mmHg 84%

übermorgen, 23 Juni, Mittwoch

Zeit Temperatur Niederschläge Wind Luftdruck Luftfeuchtigkeit
00:00 +23°C° 0.1 mm 1 m/S 747 mmHg 86%
01:00 +22°C° 0.1 mm 1 m/S 747 mmHg 87%
02:00 +22°C° 0.1 mm 1 m/S 747 mmHg 89%
03:00 +20°C° 0 mm 2 m/S 747 mmHg 89%
04:00 +20°C° 0 mm 2 m/S 748 mmHg 90%
05:00 +20°C° 0 mm 2 m/S 748 mmHg 90%
06:00 +23°C° 0 mm 2 m/S 748 mmHg 83%
07:00 +24°C° 0 mm 2 m/S 748 mmHg 77%
08:00 +26°C° 0 mm 2 m/S 748 mmHg 70%
09:00 +27°C° 0 mm 2 m/S 749 mmHg 65%
10:00 +28°C° 0 mm 3 m/S 749 mmHg 59%
11:00 +30°C° 0 mm 3 m/S 749 mmHg 53%
12:00 +30°C° 0 mm 3 m/S 749 mmHg 52%
13:00 +31°C° 0 mm 2 m/S 749 mmHg 50%
14:00 +32°C° 0 mm 2 m/S 749 mmHg 48%
15:00 +32°C° 0 mm 2 m/S 749 mmHg 50%
16:00 +32°C° 0 mm 2 m/S 749 mmHg 52%
17:00 +31°C° 0 mm 2 m/S 749 mmHg 54%
18:00 +30°C° 0 mm 2 m/S 749 mmHg 60%
19:00 +29°C° 0 mm 1 m/S 749 mmHg 66%
20:00 +27°C° 0 mm 1 m/S 748 mmHg 72%
21:00 +26°C° 0.2 mm 1 m/S 749 mmHg 75%
22:00 +25°C° 0.2 mm 1 m/S 749 mmHg 77%
23:00 +24°C° 0.2 mm 1 m/S 749 mmHg 80%

24 Juni, Donnerstag

Zeit Temperatur Niederschläge Wind Luftdruck Luftfeuchtigkeit
00:00 +24°C° 0.6 mm 1 m/S 749 mmHg 83%
01:00 +23°C° 0.6 mm 2 m/S 749 mmHg 87%
02:00 +23°C° 0.6 mm 2 m/S 749 mmHg 90%
03:00 +23°C° 0 mm 2 m/S 749 mmHg 90%
04:00 +23°C° 0 mm 1 m/S 749 mmHg 90%
05:00 +23°C° 0 mm 1 m/S 749 mmHg 89%
06:00 +24°C° 0 mm 1 m/S 749 mmHg 85%
07:00 +25°C° 0 mm 1 m/S 749 mmHg 81%
08:00 +27°C° 0 mm 1 m/S 749 mmHg 77%
09:00 +28°C° 0.1 mm 1 m/S 749 mmHg 73%
10:00 +29°C° 0.1 mm 2 m/S 749 mmHg 68%
11:00 +30°C° 0.1 mm 2 m/S 749 mmHg 63%
12:00 +31°C° 0.4 mm 2 m/S 749 mmHg 61%
13:00 +31°C° 0.4 mm 2 m/S 749 mmHg 58%
14:00 +32°C° 0.4 mm 2 m/S 749 mmHg 56%
15:00 +32°C° 0 mm 2 m/S 748 mmHg 56%
16:00 +32°C° 0 mm 2 m/S 748 mmHg 57%
17:00 +33°C° 0 mm 3 m/S 748 mmHg 58%
18:00 +29°C° 0.6 mm 2 m/S 748 mmHg 66%
19:00 +27°C° 0.6 mm 2 m/S 748 mmHg 75%
20:00 +25°C° 0.6 mm 2 m/S 748 mmHg 83%
21:00 +24°C° 0.4 mm 2 m/S 748 mmHg 85%
22:00 +23°C° 0.4 mm 1 m/S 748 mmHg 87%
23:00 +22°C° 0.4 mm 1 m/S 748 mmHg 89%

25 Juni, Freitag

Zeit Temperatur Niederschläge Wind Luftdruck Luftfeuchtigkeit
00:00 +22°C° 0.8 mm 1 m/S 748 mmHg 91%
01:00 +21°C° 0.8 mm 1 m/S 748 mmHg 92%
02:00 +21°C° 0.8 mm 1 m/S 748 mmHg 94%
03:00 +21°C° 0.2 mm 1 m/S 748 mmHg 94%
04:00 +21°C° 0.2 mm 1 m/S 747 mmHg 94%
05:00 +21°C° 0.2 mm 1 m/S 747 mmHg 95%
06:00 +23°C° 0 mm 2 m/S 747 mmHg 90%
07:00 +25°C° 0 mm 2 m/S 747 mmHg 85%
08:00 +27°C° 0 mm 2 m/S 747 mmHg 80%
09:00 +28°C° 0 mm 3 m/S 747 mmHg 73%
10:00 +30°C° 0 mm 3 m/S 747 mmHg 66%
11:00 +32°C° 0 mm 4 m/S 747 mmHg 60%
12:00 +33°C° 0 mm 4 m/S 747 mmHg 57%
13:00 +34°C° 0 mm 4 m/S 746 mmHg 54%
14:00 +34°C° 0 mm 4 m/S 746 mmHg 51%
15:00 +34°C° 0 mm 4 m/S 746 mmHg 53%
16:00 +34°C° 0 mm 4 m/S 745 mmHg 56%
17:00 +33°C° 0 mm 5 m/S 745 mmHg 59%
18:00 +30°C° 0.3 mm 4 m/S 745 mmHg 66%
19:00 +28°C° 0.3 mm 4 m/S 745 mmHg 74%
20:00 +26°C° 0.3 mm 3 m/S 745 mmHg 81%
21:00 +25°C° 0.1 mm 3 m/S 745 mmHg 86%
22:00 +23°C° 0.1 mm 2 m/S 746 mmHg 91%
23:00 +21°C° 0.1 mm 1 m/S 746 mmHg 96%

26 Juni, Samstag

Zeit Temperatur Niederschläge Wind Luftdruck Luftfeuchtigkeit
00:00 +20°C° 0.1 mm 2 m/S 746 mmHg 96%
01:00 +19°C° 0.1 mm 2 m/S 747 mmHg 97%
02:00 +19°C° 0.1 mm 3 m/S 747 mmHg 97%
03:00 +18°C° 0 mm 2 m/S 747 mmHg 97%
04:00 +18°C° 0 mm 2 m/S 747 mmHg 97%
05:00 +17°C° 0 mm 2 m/S 747 mmHg 97%
06:00 +18°C° 0 mm 2 m/S 748 mmHg 93%
07:00 +18°C° 0 mm 3 m/S 748 mmHg 89%
08:00 +19°C° 0 mm 3 m/S 748 mmHg 85%
09:00 +21°C° 0 mm 3 m/S 748 mmHg 77%
10:00 +22°C° 0 mm 3 m/S 748 mmHg 69%
11:00 +25°C° 0 mm 3 m/S 749 mmHg 61%
12:00 +26°C° 0 mm 3 m/S 749 mmHg 57%
13:00 +27°C° 0 mm 3 m/S 749 mmHg 54%
14:00 +27°C° 0 mm 3 m/S 748 mmHg 51%
15:00 +27°C° 0 mm 3 m/S 748 mmHg 52%
16:00 +27°C° 0 mm 3 m/S 748 mmHg 53%
17:00 +27°C° 0 mm 3 m/S 748 mmHg 54%
18:00 +26°C° 0 mm 2 m/S 748 mmHg 62%
19:00 +24°C° 0 mm 2 m/S 748 mmHg 69%
20:00 +23°C° 0 mm 2 m/S 748 mmHg 76%
21:00 +21°C° 0 mm 2 m/S 748 mmHg 80%
22:00 +19°C° 0 mm 2 m/S 748 mmHg 84%
23:00 +18°C° 0 mm 3 m/S 749 mmHg 88%
Mehr zeigen

Wir brauchen deine Erlaubnis

Meteoprog und unser Service Anbieter werden persönliche Daten aufbewahren, so wie Cookies, Geräte Bezeichnung oder ähnliche Technologien von deinem Gerät und Prozess, so wie Persönliche Daten Inhalte und Werbungen, genauso wie social Media und den Verkehr zu analysieren.

  • Aufbewahrung und/oder Zugang zu deiner Geräte Informationen.

    Cookies, Geräte Bezeichnung oder andere Informationen, können aufbewahrt oder Zugang zu deinem Gerät erhalten, für den Grund, der oben angegeben wird.

  • Personalisierte Werbung und Inhalte, Messungen, Einblick in das Publikum und Produkt Entwicklung.

    Werbungen und Inhalte können personalisiert werden, basierend auf ein Profil. Mehr Daten können besser personalisierte Werbungen und Inhalte hinzufügen. Werbung und Inhalte können gezeigt und gemessen werden. Einblicke über das Publikum, welche die Werbung gesehen haben und den Inhalt, können abgeleitet werden. So wie Daten können genutzt werden, um es zu verbessern oder die Benutzer Erfahrung zu verbessern das System und die Software.

Wenn du “Ich stimme zu” klickst, erlaubst du uns, die Cookies zu benutzen die Geräte Bezeichnung, den Web oder ähnliche Technologien zu benutzen. Deine Settings, können in deinem Gerät bei deinem Browser geändert werden.

Für den bestimmten Zweck, berechtigten Interessen beruhen darauf, mehr als auf den Inhalt. Du kannst mehr darüber in unseren Privaten und Cookie Politik lesen.